Simultaneous Nadir Overpasses (SNOs) Predictions

Prediction of SNOs between GOES-15 and FY3D Satellite Orbit:

Table of predicted SNOs for the next 14.0 days since TLE Epoch: 7/31/2021
Index Date Time (GOES-15) GOES-15 Lat,Lon FY3D Lat,Lon Distance(km) Time Diff (sec)
1 07/31/2021 10:24:50 -0.16,-127.92 0.70,-131.66 426.96 80
2 08/01/2021 10:08:33 -0.15,-127.94 -0.35,-127.07 99.52 80
3 08/03/2021 22:11:11 0.17,-127.91 0.22,-127.69 24.43 80
4 08/06/2021 10:11:02 -0.18,-128.06 -0.16,-128.29 25.61 80
5 08/08/2021 22:13:38 0.20,-128.01 -0.02,-128.90 102.00 80
6 08/09/2021 21:57:21 0.19,-128.03 1.03,-124.32 423.31 80
7 08/11/2021 10:16:09 -0.21,-128.15 0.09,-129.50 153.37 80
8 08/12/2021 09:59:51 -0.20,-128.17 -0.91,-124.90 371.85 80
9 08/13/2021 22:18:46 0.22,-128.09 -0.26,-130.11 230.61 80
